GW2092 Weather Reports


time (UTC)temp
F
wind
direction
speed
knots
gust
knots
rain 1hr
in
rain 24hr
in
rain mn
in
humidity
%
barometer
mb
20260510194545 65 352 0.0 5.2 0.00 0.00 0.00 63 1019.7
20260510193042 65 0 0.9 6.1 0.00 0.00 0.00 62 1020.1
20260510191540 66 86 0.9 4.3 0.00 0.00 0.00 61 1020.0
20260510190042 67 56 0.9 3.5 0.00 0.00 0.00 59 1020.0
20260510184539 68 60 0.9 5.2 0.00 0.00 0.00 61 1019.7
20260510183037 68 0 0.9 6.1 0.00 0.00 0.00 60 1019.8
20260510181545 68 0 0.9 7.0 0.00 0.00 0.00 58 1019.7
20260510180046 68 338 1.7 6.1 0.00 0.00 0.00 62 1019.7
20260510174539 68 0 0.9 6.1 0.00 0.00 0.00 61 1019.5
20260510173038 68 56 1.7 7.0 0.00 0.00 0.00 61 1019.4
20260510171546 68 90 1.7 6.1 0.00 0.00 0.00 62 1019.4
20260510170109 67 61 1.7 7.0 0.00 0.00 0.00 66 1019.3
20260510164559 67 72 0.9 7.8 0.00 0.00 0.00 70 1019.2
20260510163043 66 53 1.7 9.6 0.00 0.00 0.00 70 1018.9
20260510161546 65 356 0.9 7.0 0.00 0.00 0.00 72 1018.7
20260510160039 65 49 1.7 5.2 0.00 0.00 0.00 73 1018.5
20260510154548 65 81 0.9 8.7 0.00 0.00 0.00 73 1018.3
20260510153055 65 82 0.9 7.0 0.00 0.00 0.00 73 1017.9
20260510151542 65 0 0.0 5.2 0.00 0.00 0.00 73 1017.6
20260510150043 65 50 0.9 6.1 0.00 0.00 0.00 73 1017.5
20260510144548 64 30 0.0 2.6 0.00 0.00 0.00 77 1017.5
20260510143045 64 0 0.0 4.3 0.00 0.00 0.00 77 1017.8
20260510141548 64 0 0.9 4.3 0.00 0.00 0.00 76 1017.9
20260510140046 64 59 0.0 5.2 0.00 0.00 0.00 76 1017.7
20260510134544 64 353 0.0 5.2 0.00 0.00 0.00 75 1017.6
20260510133042 64 79 0.0 5.2 0.00 0.00 0.00 75 1017.2
20260510131538 65 338 0.0 4.3 0.00 0.00 0.00 73 1017.1
20260510130047 67 358 0.0 2.6 0.00 0.00 0.00 73 1016.7
20260510124558 65 0 0.0 0.9 0.00 0.00 0.00 76 1016.3
20260510123045 65 0 0.0 1.7 0.00 0.00 0.00 79 1016.2
20260510121543 60 0 0.0 0.0 0.00 0.00 0.00 88 1015.9
20260510120042 58 0 0.0 0.0 0.00 0.00 0.00 87 1015.8
20260510114538 56 0 0.0 0.0 0.00 0.00 0.00 88 1015.5
20260510113044 56 0 0.0 0.0 0.00 0.00 0.00 87 1015.1
20260510111544 56 0 0.0 0.0 0.00 0.00 0.00 85 1015.1
20260510110046 57 0 0.0 0.0 0.00 0.00 0.00 85 1015.0
20260510104555 57 0 0.0 0.0 0.00 0.00 0.00 85 1015.1
20260510103048 57 0 0.0 0.0 0.00 0.00 0.00 84 1015.0
20260510101540 58 0 0.0 0.0 0.00 0.00 0.00 83 1015.0
20260510100037 59 0 0.0 0.0 0.00 0.00 0.00 81 1015.0
20260510094537 60 0 0.0 0.9 0.00 0.00 0.00 80 1015.0
20260510093037 61 0 0.0 0.9 0.00 0.00 0.00 77 1014.9
20260510091542 60 0 0.0 0.0 0.00 0.00 0.00 78 1014.3
20260510090045 60 0 0.0 0.0 0.00 0.00 0.00 77 1014.2
20260510084539 61 0 0.0 0.9 0.00 0.01 0.00 77 1013.8
20260510083052 60 0 0.0 1.7 0.00 0.01 0.00 79 1013.9
20260510081538 59 0 0.0 0.9 0.00 0.01 0.00 84 1014.0
20260510080036 59 0 0.0 0.0 0.00 0.01 0.00 85 1013.2
20260510074543 59 0 0.0 0.0 0.00 0.01 0.00 83 1012.9
20260510073040 60 0 0.0 0.9 0.00 0.01 0.00 83 1013.0
20260510071540 60 61 0.0 0.9 0.00 0.01 0.00 84 1013.2
20260510070039 60 0 0.0 0.0 0.00 0.01 0.00 85 1012.9
20260510064544 60 0 0.0 0.0 0.00 0.01 0.00 85 1013.1
20260510063045 60 0 0.0 0.0 0.00 0.01 0.00 86 1013.6
20260510061543 60 0 0.0 0.0 0.00 0.01 0.00 85 1013.8
20260510060042 60 0 0.0 0.0 0.00 0.01 0.00 85 1013.9
20260510054538 59 0 0.0 0.0 0.00 0.01 0.00 85 1014.0
20260510053046 59 0 0.0 0.0 0.00 0.01 0.00 85 1014.1
20260510051547 59 0 0.0 0.0 0.00 0.01 0.00 83 1014.1
20260510050044 59 0 0.0 0.0 0.00 0.01 0.00 82 1014.0
20260510044549 60 0 0.0 0.9 0.00 0.01 0.01 80 1013.8
20260510043040 60 0 0.0 0.0 0.00 0.01 0.01 76 1013.6
20260510041546 60 0 0.0 0.0 0.00 0.01 0.01 76 1013.5
20260510040048 60 0 0.0 0.0 0.00 0.01 0.01 78 1013.7
20260510034548 60 0 0.0 0.0 0.00 0.01 0.01 76 1013.5
20260510033053 60 0 0.0 0.0 0.00 0.01 0.01 77 1013.1
20260510031544 61 0 0.0 0.0 0.00 0.01 0.01 73 1012.9
20260510030043 61 0 0.0 0.0 0.00 0.01 0.01 73 1012.8
20260510024541 62 0 0.0 0.0 0.00 0.01 0.01 73 1012.7
20260510023045 63 0 0.0 0.0 0.00 0.01 0.01 70 1012.4
20260510021546 63 0 0.0 0.0 0.00 0.01 0.01 70 1011.9
20260510020045 64 0 0.0 0.0 0.00 0.01 0.01 71 1011.7
20260510014543 65 0 0.0 0.0 0.00 0.01 0.01 69 1011.3
20260510013049 67 0 0.0 0.0 0.00 0.01 0.01 66 1011.0
20260510011545 68 0 0.0 0.0 0.00 0.01 0.01 65 1010.9
20260510010043 71 0 0.0 0.0 0.00 0.01 0.01 61 1010.6
20260510004546 73 0 0.0 0.0 0.00 0.01 0.01 58 1010.5
20260510003057 75 0 0.0 0.0 0.00 0.01 0.01 57 1010.2
20260510001542 76 0 0.0 0.0 0.00 0.01 0.01 51 1010.5
20260510000043 77 0 0.0 0.0 0.00 0.01 0.01 48 1010.6
20260509234547 79 0 0.0 0.0 0.00 0.01 0.01 44 1010.6
20260509233047 81 0 0.0 0.0 0.00 0.01 0.01 40 1010.6
20260509231543 83 0 0.0 0.9 0.00 0.01 0.01 35 1010.7
20260509230051 84 0 0.0 0.0 0.00 0.01 0.01 38 1010.5
20260509224553 85 0 0.0 0.0 0.00 0.01 0.01 35 1010.5
20260509223047 84 0 0.0 0.0 0.00 0.01 0.01 38 1010.7
20260509221541 84 0 0.0 0.9 0.00 0.01 0.01 39 1010.7
20260509220038 87 0 0.0 0.9 0.00 0.01 0.01 33 1010.7
20260509214544 86 233 0.0 0.9 0.00 0.01 0.01 36 1010.8
20260509213045 86 0 0.0 0.9 0.00 0.01 0.01 35 1010.9
20260509211545 86 193 0.0 0.9 0.00 0.01 0.01 34 1010.9
20260509210048 85 0 0.0 0.9 0.00 0.01 0.01 36 1011.1
20260509204540 86 0 0.0 0.9 0.00 0.01 0.01 33 1011.4
20260509203051 86 0 0.0 0.9 0.00 0.01 0.01 36 1011.4
20260509201544 87 0 0.0 1.7 0.00 0.01 0.01 35 1011.5
20260509200045 86 100 0.0 1.7 0.00 0.01 0.01 35 1011.4